User: anonymous   Login
Location: Boston
(42.3580°N, 71.0600°W)
Time: 00:52:49
(UTC-05:00)
Language:

LO-87 - Orbit

View from above orbital plane
View from above orbital plane
View from above satellite
View from above satellite

Ground track
Ground track

The orbit data is extracted from the following two-line orbital elements,

1 41557U 16033B   17328.78824050  .00002366  00000-0  89855-4 0  9996
2 41557  97.4525  48.2709 0014745 154.6437 205.5529 15.27742031 82940
Epoch (UTC): 24 November 2017 18:55:03
Eccentricity: 0.0014745
inclination: 97.4525°
perigee height: 472 km
apogee height: 492 km
right ascension of ascending node: 48.2709°
argument of perigee: 154.6437°
revolutions per day: 15.27742031
mean anomaly at epoch: 205.5529°
orbit number at epoch: 8294

The dashed part of the orbit path shows where the satellite is in the earth's shadow,  

DLR